EN

Hourly Weather Naru

Today, 25 January, Monday

Time Temperature Precipitation Wind Pressure Humidity
00:00 +20°C° 0 mm 1 mps 742 mmHg 96%
01:00 +20°C° 0 mm 1 mps 742 mmHg 83%
02:00 +19°C° 0 mm 1 mps 742 mmHg 85%
03:00 +19°C° 0 mm 1 mps 742 mmHg 88%
04:00 +19°C° 0 mm 1 mps 742 mmHg 90%
05:00 +17°C° 0 mm 0 mps 742 mmHg 88%
06:00 +17°C° 0 mm 0 mps 742 mmHg 86%
07:00 +18°C° 0 mm 0 mps 743 mmHg 83%
08:00 +22°C° 0 mm 0 mps 744 mmHg 67%
09:00 +27°C° 0 mm 0 mps 744 mmHg 51%
10:00 +32°C° 0 mm 0 mps 744 mmHg 35%
11:00 +33°C° 0 mm 0 mps 744 mmHg 32%
12:00 +36°C° 0 mm 1 mps 743 mmHg 28%
13:00 +37°C° 0 mm 1 mps 743 mmHg 26%
14:00 +37°C° 0 mm 1 mps 742 mmHg 27%
15:00 +36°C° 0 mm 1 mps 742 mmHg 27%
16:00 +36°C° 0 mm 1 mps 741 mmHg 28%
17:00 +34°C° 0 mm 2 mps 742 mmHg 42%
18:00 +29°C° 0 mm 2 mps 742 mmHg 55%
19:00 +26°C° 0 mm 2 mps 743 mmHg 68%
20:00 +24°C° 0 mm 2 mps 743 mmHg 76%
21:00 +23°C° 0 mm 1 mps 743 mmHg 83%
22:00 +21°C° 0 mm 1 mps 743 mmHg 91%
23:00 +20°C° 0 mm 1 mps 743 mmHg 92%

Tomorrow, 26 January, Tuesday

Time Temperature Precipitation Wind Pressure Humidity
00:00 +20°C° 0 mm 1 mps 743 mmHg 94%
01:00 +19°C° 0 mm 1 mps 743 mmHg 95%
02:00 +19°C° 0 mm 1 mps 743 mmHg 94%
03:00 +18°C° 0 mm 2 mps 743 mmHg 93%
04:00 +18°C° 0 mm 2 mps 743 mmHg 92%
05:00 +18°C° 0 mm 2 mps 743 mmHg 91%
06:00 +18°C° 0 mm 2 mps 744 mmHg 90%
07:00 +19°C° 0 mm 2 mps 744 mmHg 89%
08:00 +21°C° 0 mm 2 mps 744 mmHg 76%
09:00 +25°C° 0 mm 2 mps 745 mmHg 64%
10:00 +28°C° 0 mm 3 mps 745 mmHg 51%
11:00 +30°C° 0 mm 3 mps 745 mmHg 47%
12:00 +31°C° 0 mm 3 mps 744 mmHg 43%
13:00 +33°C° 0 mm 3 mps 743 mmHg 39%
14:00 +32°C° 0 mm 4 mps 743 mmHg 42%
15:00 +32°C° 0 mm 4 mps 742 mmHg 45%
16:00 +30°C° 0 mm 4 mps 742 mmHg 48%
17:00 +27°C° 0 mm 3 mps 742 mmHg 56%
18:00 +25°C° 0 mm 3 mps 742 mmHg 65%
19:00 +22°C° 0 mm 3 mps 743 mmHg 73%
20:00 +21°C° 0 mm 2 mps 743 mmHg 78%
21:00 +20°C° 0 mm 2 mps 743 mmHg 83%
22:00 +19°C° 0 mm 2 mps 744 mmHg 88%
23:00 +19°C° 0 mm 2 mps 743 mmHg 90%

Day after tomorrow, 27 January, Wednesday

Time Temperature Precipitation Wind Pressure Humidity
00:00 +18°C° 0 mm 2 mps 743 mmHg 92%
01:00 +19°C° 0 mm 1 mps 743 mmHg 94%
02:00 +19°C° 0 mm 1 mps 743 mmHg 94%
03:00 +19°C° 0 mm 1 mps 743 mmHg 95%
04:00 +19°C° 0 mm 1 mps 743 mmHg 95%
05:00 +19°C° 0 mm 1 mps 743 mmHg 95%
06:00 +19°C° 0 mm 1 mps 743 mmHg 94%
07:00 +19°C° 0 mm 1 mps 744 mmHg 94%
08:00 +22°C° 0 mm 1 mps 744 mmHg 80%
09:00 +25°C° 0 mm 2 mps 745 mmHg 66%
10:00 +29°C° 0 mm 2 mps 745 mmHg 52%
11:00 +30°C° 0 mm 2 mps 745 mmHg 47%
12:00 +32°C° 0 mm 2 mps 744 mmHg 41%
13:00 +35°C° 0 mm 2 mps 743 mmHg 36%
14:00 +34°C° 0 mm 2 mps 743 mmHg 38%
15:00 +34°C° 0 mm 3 mps 742 mmHg 40%
16:00 +33°C° 0 mm 3 mps 742 mmHg 42%
17:00 +29°C° 0 mm 3 mps 742 mmHg 53%
18:00 +27°C° 0 mm 2 mps 742 mmHg 64%
19:00 +24°C° 0 mm 2 mps 743 mmHg 74%
20:00 +23°C° 0 mm 2 mps 743 mmHg 81%
21:00 +20°C° 0 mm 2 mps 743 mmHg 87%
22:00 +20°C° 0 mm 1 mps 744 mmHg 93%
23:00 +20°C° 0 mm 1 mps 744 mmHg 94%

28 January, Thursday

Time Temperature Precipitation Wind Pressure Humidity
00:00 +19°C° 0 mm 1 mps 744 mmHg 95%
01:00 +18°C° 0 mm 1 mps 744 mmHg 97%
02:00 +18°C° 0 mm 1 mps 744 mmHg 96%
03:00 +18°C° 0 mm 1 mps 744 mmHg 96%
04:00 +17°C° 0 mm 2 mps 744 mmHg 95%
05:00 +17°C° 0 mm 2 mps 744 mmHg 93%
06:00 +18°C° 0 mm 2 mps 745 mmHg 90%
07:00 +19°C° 0 mm 2 mps 746 mmHg 87%
08:00 +21°C° 0 mm 3 mps 746 mmHg 75%
09:00 +25°C° 0 mm 4 mps 747 mmHg 63%
10:00 +27°C° 0 mm 4 mps 747 mmHg 52%
11:00 +28°C° 0 mm 4 mps 747 mmHg 49%
12:00 +29°C° 0 mm 5 mps 746 mmHg 47%
13:00 +30°C° 0 mm 5 mps 746 mmHg 45%
14:00 +29°C° 0 mm 5 mps 745 mmHg 47%
15:00 +28°C° 0 mm 5 mps 745 mmHg 49%
16:00 +28°C° 0 mm 5 mps 744 mmHg 51%
17:00 +26°C° 0 mm 4 mps 745 mmHg 58%
18:00 +23°C° 0 mm 4 mps 746 mmHg 64%
19:00 +21°C° 0 mm 4 mps 746 mmHg 71%
20:00 +21°C° 0 mm 4 mps 746 mmHg 72%
21:00 +20°C° 0 mm 4 mps 747 mmHg 74%
22:00 +20°C° 0 mm 4 mps 747 mmHg 76%
23:00 +20°C° 0 mm 4 mps 747 mmHg 74%

29 January, Friday

Time Temperature Precipitation Wind Pressure Humidity
00:00 +20°C° 0 mm 4 mps 747 mmHg 73%
01:00 +20°C° 0 mm 4 mps 747 mmHg 71%
02:00 +20°C° 0 mm 4 mps 747 mmHg 71%
03:00 +20°C° 0 mm 4 mps 746 mmHg 72%
04:00 +20°C° 0 mm 4 mps 746 mmHg 72%
05:00 +20°C° 0 mm 3 mps 747 mmHg 74%
06:00 +20°C° 0 mm 3 mps 747 mmHg 76%
07:00 +19°C° 0 mm 3 mps 747 mmHg 78%
08:00 +21°C° 0 mm 3 mps 748 mmHg 69%
09:00 +23°C° 0 mm 4 mps 748 mmHg 60%
10:00 +26°C° 0 mm 5 mps 749 mmHg 50%
11:00 +27°C° 0 mm 5 mps 748 mmHg 48%
12:00 +28°C° 0 mm 5 mps 747 mmHg 46%
13:00 +29°C° 0 mm 5 mps 747 mmHg 43%
14:00 +28°C° 0 mm 5 mps 746 mmHg 46%
15:00 +27°C° 0 mm 5 mps 745 mmHg 50%
16:00 +26°C° 0 mm 5 mps 745 mmHg 53%
17:00 +23°C° 0 mm 4 mps 745 mmHg 60%
18:00 +22°C° 0 mm 4 mps 745 mmHg 66%
19:00 +20°C° 0 mm 3 mps 746 mmHg 73%
20:00 +19°C° 0 mm 3 mps 746 mmHg 75%
21:00 +19°C° 0 mm 3 mps 746 mmHg 78%
22:00 +19°C° 0 mm 2 mps 747 mmHg 80%
23:00 +18°C° 0 mm 2 mps 747 mmHg 81%

30 January, Saturday

Time Temperature Precipitation Wind Pressure Humidity
00:00 +18°C° 0 mm 2 mps 746 mmHg 83%
01:00 +18°C° 0 mm 2 mps 746 mmHg 84%
02:00 +18°C° 0 mm 2 mps 746 mmHg 84%
03:00 +18°C° 0 mm 2 mps 746 mmHg 85%
04:00 +18°C° 0 mm 2 mps 745 mmHg 85%
05:00 +18°C° 0 mm 2 mps 746 mmHg 84%
06:00 +19°C° 0 mm 2 mps 746 mmHg 82%
07:00 +19°C° 0 mm 2 mps 747 mmHg 81%
08:00 +21°C° 0 mm 3 mps 747 mmHg 71%
09:00 +25°C° 0 mm 3 mps 747 mmHg 61%
10:00 +27°C° 0 mm 4 mps 748 mmHg 52%
11:00 +28°C° 0 mm 4 mps 747 mmHg 49%
12:00 +29°C° 0 mm 4 mps 747 mmHg 47%
13:00 +29°C° 0 mm 4 mps 746 mmHg 45%
14:00 +29°C° 0 mm 4 mps 745 mmHg 48%
15:00 +28°C° 0 mm 4 mps 745 mmHg 50%
16:00 +27°C° 0 mm 4 mps 744 mmHg 53%
17:00 +25°C° 0 mm 4 mps 745 mmHg 60%
18:00 +23°C° 0 mm 4 mps 745 mmHg 67%
19:00 +21°C° 0 mm 3 mps 746 mmHg 74%
20:00 +20°C° 0 mm 3 mps 746 mmHg 77%
21:00 +20°C° 0 mm 3 mps 746 mmHg 79%
22:00 +19°C° 0 mm 3 mps 747 mmHg 82%
23:00 +19°C° 0 mm 2 mps 747 mmHg 83%
Show more

We Need Your Consent

Meteoprog and our Service Providers may store and access personal data such as cookies, device identifiers or other similar technologies on your device and process such data to personalise content and ads, as well as provide social media features and to analyse the traffic.

  • Store and/or access information on your device

    Cookies, device identifiers or other information can be stored or accessed on your device for the purposes indicated above.

  • Personalised ads and content, ad and content measurement, audience insights, and products development

    Ads and content can be personalised based on a profile. More data can be added to better personalise ads and content. Ad and content performance can be measured. Insights about the audience who saw the ads and content can be derived. Such data can be used to develop or improve user’s experience, systems and software.

By clicking ‘I Agree’ you will allow the use of indicated cookies, device identifiers, web beacons or other similar technologies. Your settings can be changed in the browser on your device.

For certain purposes, legitimate interests may be relied on, rather than consent. You can read more about this in our Privacy and Cookie Policy.